Regional Weather Roundup
Issued by NWS

Home | Current Version | Previous Version | Graphics & Text | Print | Product List | Glossary Off
Versions: 1 2 3 4 5 6 7 8 9 10 11 12 13 14 15 16 17 18 19 20 21 22 23 24 25 26 27 28 29 30 31 32 33 34 35 36 37 38 39 40 41 42 43 44 45 46 47 48 49 50

000
ASUS43 KMKX 201711
RWRWI

WISCONSIN REGIONAL WEATHER ROUNDUP
NATIONAL WEATHER SERVICE MILWAUKEE/SULLIVAN WI
1100 AM CST SAT DEC 20 2014

NOTE: "FAIR" INDICATES FEW OR NO CLOUDS BELOW 12,000 FEET WITH NO
SIGNIFICANT WEATHER AND/OR OBSTRUCTIONS TO VISIBILITY.

WIZ001-002-006>008-014>016-023>028-201800-
NORTHWEST WISCONSIN

CITY           SKY/WX    TMP DP  RH WIND       PRES   REMARKS
SUPERIOR ARPT  CLOUDY    31  27  84 S8        30.15F WCI  23
ASHLAND        CLOUDY    30  25  81 S3        30.18F
HAYWARD        CLOUDY    28  23  81 S10       30.15F HAZE    WCI  19
SIREN          CLOUDY    31  26  82 S7        30.15S FOG     WCI  24
CUMBERLAND     CLOUDY    28  27  93 SE9       30.14F FOG     WCI  20
RICE LAKE      CLOUDY    30  26  83 SE8       30.18F HAZE    WCI  22
CHETEK         CLOUDY    29  25  83 SE6       30.17F WCI  23
LADYSMITH      CLOUDY    29  25  85 S7        30.19F WCI  22
EAU CLAIRE     CLOUDY    30  23  75 S7        30.18F WCI  23
MENOMONIE      CLOUDY    31  26  79 SE7       30.18F HAZE    WCI  25
NEW RICHMOND   CLOUDY    31  28  90 S7        30.16S FOG     WCI  24
OSCEOLA        CLOUDY    31  28  88 S10       30.18F FOG     WCI  22
$$

WIZ003>005-009-010-017-018-201800-
NORTH CENTRAL WISCONSIN

CITY           SKY/WX    TMP DP  RH WIND       PRES   REMARKS
MANITOWISH WTR CLOUDY    24  24  99 S5        30.16F FOG     WCI  18
ARBOR VITAE    CLOUDY    26  23  91 CALM      30.16F FOG
WOODRUFF       CLOUDY    26  23  91 CALM      30.16F FOG
RHINELANDER    CLOUDY    24  23  96 S5        30.18F FOG     WCI  18
EAGLE RIVER    CLOUDY    24  24 100 CALM      30.16F FOG
LAND O LAKES   CLOUDY    25  24  96 S5        30.17F FOG     WCI  19
PHILLIPS       CLOUDY    26  23  91 SE6       30.16F FOG     WCI  19
TOMAHAWK       CLOUDY    26  23  89 CALM      30.19F FOG
MEDFORD        CLOUDY    26  24  90 SE6       30.17F FOG     WCI  19
MERRILL        CLOUDY    26  24  92 S3        30.20F FOG
$$

WIZ029-030-035-036-043>047-201800-
CENTRAL WISCONSIN

CITY           SKY/WX    TMP DP  RH WIND       PRES   REMARKS
WAUSAU         CLOUDY    26  24  92 S6        30.20S FOG     WCI  19
MOSINEE        CLOUDY    27  27 100 SE3       30.22F FOG
MARSHFIELD     CLOUDY    28  24  85 S6        30.19F FOG     WCI  22
STEVENS POINT  CLOUDY    26  22  85 SE3       30.22F FOG
WAUPACA        CLOUDY    30  25  81 CALM      30.25F HAZE
WAUTOMA        CLOUDY    29  25  85 CALM      30.25F
WISC RAPIDS    CLOUDY    28  22  78 S7        30.23F WCI  21
CAMP DOUGLAS   FLURRIES  28  28 100 S6        30.22F WCI  22
$$

WIZ011>013-019>022-031-037>040-048>050-201800-
NORTHEAST WISCONSIN

CITY           SKY/WX    TMP DP  RH WIND       PRES   REMARKS
ANTIGO         CLOUDY    24  23  96 CALM      30.20F FOG
SHAWANO        CLOUDY    27  24  88 CALM      30.26S
OCONTO         CLOUDY    26  24  91 CALM      30.26F
STURGEON BAY   CLOUDY    27  21  80 CALM      30.28S
GREEN BAY      CLOUDY    27  22  81 CALM      30.26F HAZE
MANITOWOC      CLOUDY    30  24  78 NW6       30.26F WCI  24
APPLETON       CLOUDY    27  21  80 CALM      30.25F
CLINTONVILLE   CLOUDY    28  23  80 CALM      30.25F
OSHKOSH        CLOUDY    27  22  81 CALM      30.25F HAZE
$$

WIZ032>034-041-042-053>061-201800-
SOUTHWEST WISCONSIN

CITY           SKY/WX    TMP DP  RH WIND       PRES   REMARKS
LA CROSSE      CLOUDY    32  25  75 S7        30.21F WCI  26
SPARTA         CLOUDY    30  26  83 E3        30.22F FOG
VIROQUA        CLOUDY    28  28 100 SE7       30.18F WCI  21
BOSCOBEL       CLOUDY    31  26  82 CALM      30.24F HAZE
PRAIRIE DU CHI CLOUDY    31  26  84 SE6       30.22F FOG     WCI  25
PLATTEVILLE    CLOUDY    29  27  91 CALM      30.23F
$$

WIZ056-057-062-063-064-067-068-201800-
SOUTH CENTRAL WISCONSIN

CITY           SKY/WX    TMP DP  RH WIND       PRES   REMARKS
REEDSBURG      CLOUDY    28  25  88 SE5       30.23F FOG     WCI  23
BARABOO/DELLS  CLOUDY    28  24  85 SE5       30.23F FOG     WCI  23
LONE ROCK      CLOUDY    33  25  72 E7        30.24F HAZE    WCI  27
MINERAL POINT  CLOUDY    30  28  93 SE7       30.21F FOG     WCI  23
MADISON        FLURRIES  29  24  82 S5        30.25S WCI  24
MIDDLETON      CLOUDY    31  26  82 NE3       30.25S
WATERTOWN      CLOUDY    28  24  87 CALM      30.25F
MONROE         MIX PCPN  28  28 100 SE5       30.24S WCI  23
JANESVILLE     CLOUDY    30  25  80 CALM      30.26S
$$

WIZ051-052-058>065-066-070>072-201800-
SOUTHEAST WISCONSIN

CITY           SKY/WX    TMP DP  RH WIND       PRES   REMARKS
MILWAUKEE      CLOUDY    30  19  63 W3        30.26F
WAUKESHA       CLOUDY    27  19  74 CALM      30.26F
MILWAUKEE/TIMM CLOUDY    28  19  69 CALM      30.28S
RACINE         CLOUDY    30  21  69 W5        30.28F WCI  25
BURLINGTON     CLOUDY    27  22  81 CALM      30.26F
KENOSHA        CLOUDY    30  23  75 CALM      30.26F
FOND DU LAC    CLOUDY    28  21  75 CALM      30.25F
SHEBOYGAN      CLOUDY    30  21  69 N5        30.25F WCI  25
WEST BEND      CLOUDY    30  21  69 CALM      30.24F
JUNEAU         CLOUDY    28  23  83 CALM      30.26F
$$

LSZ147-162-201800-
LAKE SUPERIOR

STATION/POSITION TIME  TEMP    WIND        PRES    WAVE
                       AIR SEA DIR/SP/G            HT/PER
                 (UTC) (F)     (DEG/KT/KT) (MB)    (FT/S)
DEVILS ISLAND    1700   30     190/  5/  7 1022.6F
PORT WING        1600   30     180/  9/ 13 1021.7F
SAXON HARBOR     1600   29     190/  4/  7 1022.4
$$

LMZ867-665-643>646-201800-
LAKE MICHIGAN

STATION/POSITION TIME  TEMP    WIND        PRES    WAVE
                       AIR SEA DIR/SP/G            HT/PER
                 (UTC) (F)     (DEG/KT/KT) (MB)    (FT/S)
CHAMBERS ISLAND  1640   27     230/  5/  7 1025.1S
NORTHPORT PIER   1629   30     280/  2/  6 1025.1S
SISTER BAY       1613          280/  5/  6   N/A
ALGOMA LAKESHORE 1514          340/  7/  8   N/A
KEWAUNEE LAKESHO 1600   29        CALM     1024.1R
SHEBOYGAN LAKESH 1700   30 34  340/  4/  4 1025.6F
PORT WASHINGTON  1600   29     290/  4/  7 1025.7
MILWAUKEE LAKESH 1600   28     280/  4/  5   N/A
KENOSHA   LAKESH 1700   30     260/  3/  5 1025.1F
$$

TC  - TEMPERATURE IN CELSIUS
VSB - VISIBILITY IN STATUTE MILES
WCI - WIND CHILL INDEX
HX  - HEAT INDEX



USA.gov is the U.S. government's official web portal to all federal, state and local government web resources and services.